Simultaneous Nadir Overpasses (SNOs) Predictions

Prediction of SNOs over PacNW region [( 10.00, 139.50) to ( 22.70, 165.60)] between AQUA and NPP Satellites:

Table of predicted SNOs over PacNW region for the next 30.0 days since TLE Epoch: 1/10/2020
Index Date (AQUA) Time (AQUA) AQUA Lat,Lon Date (NPP) Time (NPP) NPP Lat,Lon Distance(km) Time Diff (sec)
1 01/12/2020 03:31:36 22.68, 147.53 01/12/2020 03:28:06 27.27, 144.65 587.12 210
2 01/17/2020 15:59:14 22.62, 147.50 01/17/2020 16:01:12 23.25, 144.65 300.66 118
3 01/25/2020 15:09:50 22.58, 159.85 01/25/2020 15:10:22 23.14, 157.33 265.91 32
4 02/02/2020 15:59:17 22.61, 147.50 02/02/2020 16:00:58 23.23, 144.69 296.33 101




NCC Satellite Simultaneous Nadir Overpasses (SNOs) Prediction Service
